Flag for U.S.A. Weather past 2 weeks in Pensacola, Florida, U.S.A.

Now
68 °F

Sunny.


Feels Like: 68 °F
Forecast: 50 / 66 °F
Wind: 8 mph from Southwest

Location: Pensacola Regional Airport

Current Time: Mar 26, 2015 at 7:04:42 PM

Latest Report: Mar 26, 2015 at 5:53 PM


Visibility: 10 mi

Pressure: 29.84 "Hg

Humidity: 82%

Dew point: 62 °F

Location of PensacolaLocation

Historic Weather in Pensacola — Graph

°F

Pensacola temperature yesterday

Maximum temperature yesterday: 74 °F (at 2:53 PM)
Minimum temperature yesterday: 62 °F (at 6:53 AM)
Average temperature yesterday: 68 °F

Past Weeks' High & Low Weather Summary

 TemperatureHumidityPressure
High86 °F (Mar 17, 1:53 PM)100% (Mar 11, 10:53 PM)30.25 "Hg (Mar 11, 10:53 PM)
Low57 °F (Mar 16, 6:53 AM)35% (Mar 16, 12:53 PM)29.82 "Hg (Mar 26, 4:53 PM)
Average69 °F81%30.06 "Hg
* Reported Mar 11 5:53 PM — Mar 26 5:53 PM, Pensacola, Weather by CustomWeather, © 2015

Note: Actual official high and low records may vary slightly from our data, if they occured in-between our weather recording intervals... More about our weather records

Advertising

Pensacola weather history for previous 24 hours

 ConditionsComfort  
Time TempWeatherWind HumidityBarometerVisibility
5:53 PM
Thu, Mar 26
68 °FSunny.8 mph82%29.84 "Hg10 mi
4:53 PM68 °FScattered clouds.13 mph82%29.82 "Hg10 mi
3:53 PM68 °FLight rain. Overcast.6 mph90%29.87 "Hg10 mi
2:53 PM68 °FOvercast.6 mph90%29.84 "Hg10 mi
1:53 PM66 °FLight rain. Fog.6 mph93%29.88 "Hg6 mi
12:53 PM66 °FLight rain. Fog.8 mph96%29.92 "Hg4 mi
11:53 AM68 °FLight rain. Fog.18 mph96%29.93 "Hg4 mi
11:04 AM70 °FThundershowers. Fog.No wind97%29.97 "Hg4 mi
10:53 AM71 °FThundershowers. Mostly cloudy.No wind93%29.97 "Hg7 mi
9:53 AM70 °FFog.No wind93%29.95 "Hg6 mi
8:53 AM71 °FScattered clouds.5 mph93%29.94 "Hg7 mi
7:53 AM69 °FFog.3 mph96%29.95 "Hg5 mi
6:53 AM68 °FFog.5 mph96%29.97 "Hg5 mi
6:02 AM68 °FPartly cloudy.5 mph96%29.95 "Hg8 mi
5:53 AM69 °FPartly cloudy.No wind93%29.95 "Hg8 mi
5:00 AM69 °FMostly cloudy.5 mph93%29.93 "Hg8 mi
3:53 AM69 °FPartly cloudy.6 mph93%29.95 "Hg10 mi
2:53 AM68 °FPassing clouds.6 mph90%29.96 "Hg10 mi
1:53 AM67 °FClear.6 mph90%29.97 "Hg10 mi
12:53 AM66 °FPassing clouds.7 mph90%30.00 "Hg10 mi
11:53 PM
Wed, Mar 25
67 °FClear.8 mph87%30.01 "Hg10 mi
10:53 PM68 °FClear.10 mph90%30.03 "Hg10 mi
10:03 PM68 °FPassing clouds.9 mph93%30.03 "Hg10 mi
9:53 PM68 °FClear.9 mph93%30.03 "Hg10 mi
8:53 PM68 °FPassing clouds.10 mph93%30.03 "Hg10 mi
7:53 PM68 °FPassing clouds.10 mph90%30.03 "Hg10 mi
Weather by CustomWeather, © 2015

See weather overviewHow to use our weather pages